This is the latest recevied weather packets stored in our database for station/object KA3RQR. If no packets are shown the sender has not sent any weather packets the latest 10 day(s).
| Time | Temp. | Humidity | Pressure | Rain* | Wind** | Luminosity | Snow |
|---|---|---|---|---|---|---|---|
| 1777658906 | 16.67° C | 45% | 1013 hPa | 0 mm | - | 55 W/m² | - |
| 1777655872 | 16.11° C | 49% | 1013.5 hPa | 0 mm | - | 52 W/m² | - |
| 1777655569 | 15.56° C | 49% | 1013.6 hPa | 0 mm | - | 50 W/m² | - |
| 1777654963 | 15.56° C | 49% | 1014 hPa | 0 mm | - | 50 W/m² | - |
| 1777654358 | 15.56° C | 52% | 1014 hPa | 0 mm | - | 49 W/m² | - |
| 1777653448 | 15° C | 46% | 1014 hPa | 0 mm | - | 49 W/m² | - |
| 1777653146 | 15.56° C | 44% | 1014 hPa | 0 mm | - | 50 W/m² | - |
| 1777652841 | 15.56° C | 45% | 1014.2 hPa | 0 mm | - | 48 W/m² | - |
| 1777652538 | 15° C | 46% | 1014 hPa | 0 mm | - | 96 W/m² | - |
| 1777652235 | 15° C | 46% | 1014.3 hPa | 0 mm | - | 46 W/m² | - |
| 1777651933 | 15° C | 48% | 1014.3 hPa | 0 mm | - | 46 W/m² | - |
| 1777651629 | 15° C | 45% | 1014.2 hPa | 0 mm | - | 56 W/m² | - |
| 1777651326 | 15° C | 46% | 1014.1 hPa | 0 mm | - | 45 W/m² | - |
| 1777651023 | 14.44° C | 47% | 1014.2 hPa | 0 mm | - | 46 W/m² | - |
| 1777650417 | 13.89° C | 45% | 1014.6 hPa | 0 mm | - | 47 W/m² | - |
| 1777650114 | 14.44° C | 46% | 1014.6 hPa | 0 mm | - | 46 W/m² | - |
| 1777649811 | 13.89° C | 46% | 1014.8 hPa | 0 mm | - | 50 W/m² | - |
| 1777649509 | 13.89° C | 46% | 1014.9 hPa | 0 mm | - | 69 W/m² | - |
| 1777649204 | 13.89° C | 47% | 1014.8 hPa | 0 mm | - | 144 W/m² | - |
| 1777648902 | 13.89° C | 49% | 1014.8 hPa | 0 mm | - | 62 W/m² | - |
| 1777648599 | 13.33° C | 49% | 1015.3 hPa | 0 mm | - | 44 W/m² | - |
| 1777648296 | 13.33° C | 47% | 1015.1 hPa | 0 mm | - | 46 W/m² | - |
| 1777647992 | 13.89° C | 48% | 1015.2 hPa | 0 mm | - | 60 W/m² | - |
| 1777647688 | 13.33° C | 52% | 1015.1 hPa | 0 mm | - | 45 W/m² | - |
| 1777647384 | 13.33° C | 49% | 1015.3 hPa | 0 mm | - | 44 W/m² | - |
* Rain latest hour (hover to see other rain measurements)
** Current wind speed in m/s (hover to see current wind gust speed)